Vertical_Velocity
-0 1 1 -0 5 2 -2 -1 -0 -0 0 -10 -7 -4 -2 -2 -2 4 4 -2 -11 2 3 6 -1 -1 -8 1 -1 -7 2 5 7 4 3 -0 4 2 -1 2 3 4 1 -0
-0 1 -2 0 2 -0 0 0 -3 2 -2 -6 -4 1 3 -1 -4 -3 6 4 -6 -1 -1 7 11 1 -2 -20 -7 -6 -6 -2 4 -4 -0 3 -3 2 2 -0 -0 8 3 3
0 3 1 -1 1 2 -6 -8 -6 0 -0 -2 -6 8 -3 4 -4 -1 6 -3 -5 -3 -10 1 6 7 4 -2 -4 -2 3 1 1 -6 -8 -6 -3 -1 -0 0 1 -4 2 7
-3 -0 -1 0 0 -2 3 -3 1 2 -0 1 3 -19 9 2 -2 -4 -4 3 0 -8 -1 0 4 1 4 3 -2 -1 2 0 -7 -4 3 2 3 0 0 -2 -2 -1 -4 -0
2 -2 -0 3 -2 1 2 0 -1 0 1 -14 17 -27 20 -4 5 -8 8 -3 -7 -6 -6 -5 -0 5 1 2 2 0 -3 -1 -1 -4 -7 -2 2 4 5 0 -4 -3 -2 -6
-3 -3 1 2 -1 -4 -1 -3 -3 -3 -4 7 7 -18 36 0 -7 -18 -5 1 9 0 -3 -5 -13 7 -2 -2 4 6 1 1 -0 -2 1 3 3 -2 0 3 3 3 3 1
-3 2 -1 -5 -2 1 -0 -5 -8 -1 -5 -1 3 -12 -11 -6 -5 -4 -6 3 1 -4 4 6 5 -3 3 3 4 3 4 -0 2 1 2 4 1 3 -3 -0 0 5 4 1
-6 2 0 3 -1 -3 -3 -2 3 -14 -5 7 4 -1 11 -7 -2 2 -8 -10 -3 3 1 4 5 2 6 7 7 5 5 19 8 15 7 8 5 4 -1 -1 -0 -2 -2 3
-6 1 5 3 1 3 8 1 -3 -16 2 -12 4 7 -3 -10 -8 -6 -4 -3 -5 -8 -9 -11 -8 -4 -3 -1 5 0 0 -1 -6 -9 6 1 8 1 6 -0 2 4 -0 3
0 -15 7 5 -8 3 -3 1 1 -2 -18 -13 7 7 -3 -7 22 -11 -5 -9 -15 -11 -6 -6 -5 -2 -6 -4 -1 -4 2 4 -9 -8 -8 5 8 0 -1 -4 -7 -4 0 -3
2 -7 15 -0 4 7 -0 0 -2 -4 3 -14 0 13 1 4 -16 4 -0 -1 -0 3 3 4 3 -1 -2 -2 -1 1 -2 6 7 -8 -5 -7 -1 -3 1 -10 -10 -5 0 -2
-3 -7 -1 4 7 2 -3 3 -1 -14 5 -6 -4 4 -6 -4 5 -4 -12 -5 -4 -5 -4 -0 -2 2 0 -2 3 -2 1 6 5 0 0 -2 4 -1 -5 2 4 -5 -5 -3
6 -24 -14 1 8 0 -2 6 2 -6 1 11 -16 8 8 -2 -5 -9 -4 -3 -5 -6 -6 -8 -5 -6 1 4 -10 -6 -7 1 0 1 -2 -4 -1 3 7 -2 3 3 -2 -5
9 -11 3 -10 -5 -5 -8 8 12 1 -8 -1 10 -28 22 5 -5 -2 -4 -5 -1 2 -7 -3 1 6 6 2 -6 -7 1 1 3 10 -4 -2 -18 -5 -2 3 -1 0 -5 -6
8 -6 -2 8 -2 -2 -24 16 4 -5 9 -31 10 -25 31 8 3 -1 1 4 7 -5 -8 -4 -6 -5 5 3 -1 -8 -10 2 -2 4 5 3 4 -0 -3 -4 -1 8 -3 -1
2 -10 -1 -6 5 6 -43 31 -0 8 1 -18 -3 -40 36 7 3 2 -0 -6 -3 3 7 8 1 -2 -0 4 5 1 -2 -6 -8 -3 -15 -9 2 1 2 2 -7 3 0 1
3 8 4 -26 5 8 -70 56 4 -10 7 9 -13 12 13 8 2 -0 0 1 -2 4 8 7 4 -2 1 -3 -8 -2 4 7 -3 -0 2 -5 -4 1 -0 -3 5 -2 -3 5
-2 12 10 -0 16 -25 35 2 7 -1 3 11 -5 5 -3 2 -0 -6 1 1 -3 -2 -1 1 2 4 6 -2 -0 3 3 -2 1 2 -5 2 -6 0 2 -1 -1 -3 3 3
8 7 4 3 9 0 -10 0 -12 -1 -5 -5 -4 -4 -3 -6 -2 -17 -8 -8 -6 -3 -2 -0 -1 -3 9 5 -1 -4 16 -1 -1 6 6 1 -5 -5 -4 2 3 1 -1 5
8 5 9 14 0 -8 -6 3 12 11 -49 1 -9 -4 -1 -3 -3 2 -5 -9 -5 -0 -2 -3 -4 -4 -1 4 -5 -8 4 5 4 3 12 -2 -4 -4 -2 -3 2 -0 -2 -2
10 5 -7 6 10 -27 20 1 -2 -10 2 0 2 -1 -2 -2 -2 1 -6 -1 0 -0 -5 -4 3 2 7 -1 -0 3 1 2 3 6 4 0 8 -8 -2 -0 1 -1 1 -2
4 15 -3 10 10 -27 9 -9 -0 5 -3 -1 -4 -6 -2 -3 -2 -5 -6 -2 -0 -2 0 -1 -8 7 -3 -12 -8 0 10 -2 5 2 10 3 -4 -1 -1 2 -0 -2 1 -2
-14 10 8 -5 4 -0 -1 0 -11 -3 -4 -5 -1 3 -2 3 -0 -0 0 2 1 0 -3 -1 -9 6 -0 -8 -6 6 4 -2 16 6 -2 -2 6 -3 -1 3 0 -1 1 -2
-8 7 -11 2 19 3 12 -9 -0 -4 -11 -8 -3 -1 3 3 -2 -3 2 -0 -1 1 1 -8 -3 -1 -0 -3 -10 6 2 -2 9 10 0 1 -1 -2 -1 0 -1 -1 0 -5
11 -2 17 -11 4 -1 0 1 -5 1 -2 -5 -2 2 1 -6 -1 -7 -2 3 1 -1 -3 -8 1 -3 3 -9 -6 3 4 23 14 -1 1 -0 -1 4 -2 -1 -1 3 -2 -3
22 2 -6 -2 -0 1 -1 -11 1 0 0 -2 3 3 3 -13 -2 3 1 -1 -10 1 -5 2 -2 -8 -2 -5 -4 5 -4 31 2 -7 3 2 -3 3 4 2 1 3 -1 -1
Height
5804 5806 5807 5808 5810 5810 5810 5811 5812 5812 5811 5808 5809 5810 5811 5811 5811 5811 5810 5807 5803 5805 5803 5800 5798 5792 5790 5789 5786 5784 5781 5775 5770 5766 5763 5760 5757 5755 5753 5750 5748 5746 5743 5741
5801 5802 5803 5804 5805 5806 5807 5807 5808 5808 5808 5807 5806 5805 5808 5806 5803 5801 5802 5800 5796 5797 5794 5791 5790 5784 5778 5777 5776 5774 5770 5768 5762 5756 5751 5748 5745 5743 5739 5735 5733 5732 5731 5730
5796 5798 5799 5800 5801 5802 5804 5804 5804 5805 5804 5804 5798 5798 5801 5800 5794 5793 5791 5788 5786 5787 5787 5784 5782 5776 5771 5767 5764 5762 5759 5755 5750 5744 5740 5736 5731 5727 5724 5721 5719 5717 5716 5716
5791 5792 5793 5795 5796 5796 5799 5796 5797 5798 5796 5796 5795 5787 5795 5790 5788 5783 5782 5779 5779 5779 5778 5777 5773 5767 5763 5757 5753 5750 5747 5741 5737 5732 5727 5722 5716 5713 5710 5707 5705 5703 5702 5701
5788 5788 5789 5790 5789 5789 5791 5789 5789 5788 5788 5784 5790 5782 5786 5780 5780 5776 5773 5772 5769 5766 5766 5765 5761 5756 5751 5746 5741 5737 5733 5729 5723 5717 5712 5708 5703 5700 5696 5693 5691 5690 5688 5687
5782 5783 5784 5787 5786 5786 5784 5785 5784 5783 5781 5777 5780 5773 5773 5773 5769 5765 5763 5762 5760 5757 5754 5751 5746 5745 5740 5735 5729 5726 5720 5714 5709 5703 5698 5693 5690 5686 5683 5681 5679 5677 5675 5672
5777 5778 5779 5778 5779 5781 5778 5778 5774 5775 5773 5772 5770 5764 5765 5760 5759 5756 5756 5754 5750 5747 5745 5740 5736 5732 5727 5720 5718 5713 5705 5701 5696 5689 5684 5679 5676 5673 5671 5669 5667 5664 5661 5657
5766 5771 5772 5769 5768 5770 5772 5770 5768 5759 5759 5758 5757 5758 5759 5755 5754 5750 5749 5745 5742 5739 5735 5731 5725 5719 5714 5711 5706 5699 5694 5689 5683 5677 5671 5668 5665 5661 5658 5656 5652 5647 5643 5637
5757 5759 5764 5761 5761 5758 5758 5758 5759 5754 5754 5749 5746 5744 5740 5737 5735 5734 5732 5730 5729 5725 5720 5714 5709 5704 5699 5697 5690 5684 5677 5672 5665 5662 5656 5653 5651 5645 5641 5637 5632 5625 5617 5611
5752 5749 5752 5755 5750 5750 5748 5745 5744 5744 5740 5736 5737 5735 5734 5735 5727 5725 5720 5718 5714 5710 5705 5701 5696 5690 5685 5680 5674 5669 5663 5657 5652 5645 5641 5637 5633 5627 5621 5613 5607 5602 5596 5590
5742 5742 5744 5744 5743 5743 5741 5736 5734 5733 5732 5729 5725 5725 5725 5720 5720 5715 5709 5705 5699 5695 5692 5687 5681 5675 5671 5664 5662 5657 5650 5645 5638 5631 5628 5623 5618 5611 5604 5596 5589 5585 5580 5574
5730 5730 5731 5734 5733 5731 5728 5726 5724 5721 5722 5717 5709 5717 5714 5710 5709 5702 5700 5694 5689 5685 5680 5672 5664 5659 5655 5650 5648 5640 5633 5629 5624 5618 5613 5609 5602 5595 5587 5580 5575 5569 5564 5560
5721 5718 5718 5719 5720 5721 5719 5718 5716 5712 5709 5704 5706 5706 5701 5697 5693 5688 5684 5679 5674 5669 5663 5655 5650 5647 5641 5636 5632 5623 5619 5616 5611 5603 5596 5590 5585 5577 5569 5563 5560 5555 5551 5550
5708 5706 5708 5707 5707 5705 5704 5705 5702 5701 5695 5700 5691 5697 5691 5689 5680 5674 5669 5664 5659 5652 5645 5642 5639 5635 5627 5621 5615 5609 5605 5601 5596 5588 5579 5571 5562 5560 5553 5550 5547 5545 5542 5541
5695 5692 5693 5693 5693 5690 5692 5693 5687 5684 5687 5678 5686 5675 5680 5673 5667 5661 5657 5653 5646 5636 5629 5627 5625 5619 5613 5606 5599 5593 5588 5583 5577 5572 5565 5558 5549 5543 5541 5540 5539 5536 5534 5532
5681 5678 5678 5676 5680 5675 5674 5678 5676 5676 5672 5665 5667 5666 5664 5658 5653 5647 5643 5637 5633 5628 5621 5616 5609 5602 5597 5591 5584 5577 5570 5564 5557 5550 5545 5540 5537 5535 5532 5530 5528 5527 5526 5525
5667 5664 5662 5660 5662 5656 5658 5671 5662 5660 5661 5654 5650 5655 5650 5645 5638 5634 5627 5623 5620 5616 5610 5602 5595 5587 5580 5575 5569 5564 5557 5546 5537 5531 5530 5526 5526 5525 5523 5522 5520 5520 5519 5518
5654 5653 5647 5645 5644 5636 5652 5649 5648 5644 5646 5641 5637 5637 5633 5628 5621 5617 5614 5609 5604 5600 5596 5589 5582 5574 5566 5562 5556 5548 5537 5530 5521 5516 5516 5515 5515 5515 5514 5514 5513 5512 5511 5510
5641 5639 5634 5631 5628 5626 5635 5635 5629 5625 5631 5623 5621 5618 5615 5610 5603 5598 5597 5594 5589 5584 5579 5573 5567 5561 5555 5546 5537 5530 5521 5510 5506 5505 5505 5504 5506 5506 5506 5506 5504 5503 5503 5502
5624 5623 5620 5617 5611 5609 5620 5619 5615 5610 5609 5611 5605 5602 5599 5595 5590 5583 5578 5574 5570 5567 5562 5557 5552 5544 5539 5528 5518 5507 5501 5495 5492 5491 5494 5497 5497 5497 5497 5497 5496 5495 5493 5492
5608 5604 5603 5604 5595 5592 5606 5600 5597 5593 5598 5592 5588 5585 5580 5577 5575 5570 5564 5559 5553 5548 5544 5539 5534 5526 5518 5508 5498 5486 5482 5479 5480 5481 5484 5486 5487 5488 5489 5489 5488 5486 5482 5481
5593 5590 5587 5587 5580 5576 5587 5579 5580 5577 5575 5574 5570 5566 5564 5561 5556 5552 5547 5541 5536 5531 5527 5521 5514 5505 5493 5485 5477 5472 5469 5469 5471 5473 5473 5476 5480 5480 5481 5482 5479 5476 5471 5471
5575 5578 5572 5572 5570 5564 5563 5561 5559 5560 5558 5557 5554 5550 5548 5544 5540 5535 5530 5525 5521 5514 5507 5500 5491 5484 5475 5468 5462 5460 5459 5462 5462 5464 5467 5471 5471 5472 5474 5474 5472 5468 5467 5465
5559 5560 5556 5554 5558 5552 5547 5542 5544 5540 5540 5539 5538 5534 5530 5528 5523 5519 5514 5510 5505 5497 5489 5480 5472 5468 5463 5457 5452 5452 5453 5454 5454 5457 5460 5461 5464 5464 5466 5468 5467 5464 5462 5462
5544 5540 5542 5539 5541 5534 5534 5529 5529 5526 5523 5522 5520 5517 5513 5510 5507 5501 5498 5493 5486 5477 5468 5464 5460 5457 5452 5447 5445 5446 5446 5448 5448 5450 5452 5454 5457 5455 5460 5461 5461 5460 5458 5458
5525 5524 5523 5522 5523 5519 5516 5515 5515 5513 5510 5506 5505 5502 5496 5491 5490 5486 5480 5473 5465 5461 5454 5451 5449 5446 5442 5441 5439 5440 5441 5442 5442 5442 5445 5447 5448 5451 5453 5454 5456 5455 5454 5453